CAPE
32 149 324 498 690 895 915 1142 1358 1246 1402 1803 1911 1716 1575 1589 1721 1985 2464 2628 1958 2089
32 100 267 416 476 642 956 1219 1199 1282 1291 1495 1771 1880 1806 1701 1822 2123 2369 2596 2360 2036
210 234 304 437 634 972 1086 1199 1479 1222 1214 1279 1588 1779 1811 1803 1815 1917 2072 2336 2292 2095
409 600 846 728 653 851 1047 1147 1036 1102 1087 1124 1219 1622 1831 1901 1980 2049 2191 2136 2283 2314
451 582 702 1148 1251 865 908 955 1068 1033 999 975 1048 1240 1695 1813 1982 1974 2064 2204 2141 2320
300 211 448 618 820 1391 1418 1126 929 935 1207 1420 1423 1351 1602 1837 1898 1984 2041 2234 2281 2411
363 307 314 373 540 786 1328 1533 1383 1120 1119 1221 1486 1612 1690 1904 2022 2043 2145 2281 2362 2514
659 627 636 514 487 653 928 1328 1606 1504 1249 1258 1495 1651 1826 1958 2110 2191 2271 2391 2452 2486
934 1093 1117 1192 1150 966 916 1013 1251 1363 1486 1323 1460 1536 1384 1756 2110 2226 2267 2341 2495 2562
1329 1630 1681 1703 1725 1667 1565 1556 1425 1419 1440 1357 1387 1276 1054 1219 2036 2209 2415 2594 2744 2807
1607 1633 1727 1811 1950 2040 2021 1939 1899 1763 1504 1427 1476 1102 883 860 1843 2242 2317 2442 2611 2669
1605 1693 1623 1640 1747 1820 1927 2058 2089 2095 1927 1595 1581 1183 617 354 1345 1852 2197 2331 2463 2348
1102 984 1151 1508 1599 1705 1768 1823 1851 1899 1973 1816 1806 1535 906 69 1091 1435 1789 11 2 186
877 1239 1571 2001 1746 921 948 1294 1461 1478 1514 1744 1744 1669 1195 43 973 1288 1703 0 1 1
CIN
-626 -462 -372 -306 -216 -229 -220 -202 -208 -221 -193 -169 -144 -147 -164 -151 -128 -102 -62 -59 -103 -81
-623 -516 -426 -329 -295 -303 -257 -205 -252 -236 -229 -204 -162 -148 -151 -146 -134 -99 -78 -66 -75 -90
-475 -484 -452 -407 -338 -267 -245 -251 -225 -268 -271 -256 -209 -170 -157 -155 -150 -126 -116 -85 -74 -84
-432 -403 -352 -339 -373 -311 -267 -284 -312 -305 -304 -297 -274 -208 -170 -168 -151 -127 -108 -101 -77 -69
-456 -421 -375 -288 -294 -363 -332 -320 -295 -304 -314 -324 -314 -283 -206 -192 -161 -157 -127 -111 -91 -75
-497 -548 -467 -395 -356 -299 -286 -326 -338 -337 -273 -242 -248 -273 -231 -193 -187 -166 -156 -129 -104 -85
-478 -510 -504 -492 -439 -399 -332 -269 -297 -339 -332 -304 -251 -227 -217 -193 -188 -183 -160 -141 -114 -102
-531 -451 -467 -513 -523 -478 -427 -345 -282 -292 -348 -337 -273 -227 -236 -217 -203 -190 -162 -145 -129 -125
-568 -507 -450 -426 -422 -451 -473 -461 -391 -351 -323 -362 -314 -275 -317 -251 -208 -201 -175 -157 -149 -128
-547 -468 -419 -388 -350 -343 -366 -371 -395 -383 -364 -402 -404 -371 -403 -381 -199 -196 -172 -144 -121 -118
-533 -496 -436 -397 -359 -313 -288 -300 -322 -341 -386 -396 -405 -466 -505 -486 -260 -188 -182 -176 -139 -109
-506 -467 -459 -432 -401 -375 -323 -290 -287 -284 -306 -370 -397 -436 -611 -684 -325 -218 -179 -158 -127 -114
-618 -579 -527 -459 -421 -380 -363 -366 -346 -353 -350 -381 -407 -415 -530 -886 -386 -281 -219 -45 0 -635
-558 -553 -472 -374 -407 -590 -565 -443 -396 -403 -408 -381 -398 -433 -474 -976 -418 -324 -208 0 0 0
Wind_Speed
10 8 7 8 5 5 5 5 6 8 7 8 6 5 5 3 4 4 4 5 4 2
10 9 8 7 7 5 5 4 6 7 8 7 7 7 6 4 5 4 4 4 4 3
13 11 8 7 9 8 7 6 6 6 6 6 7 7 6 5 6 6 5 4 4 4
12 11 9 9 8 8 6 7 6 6 6 7 7 8 7 8 8 8 7 5 5 6
12 11 11 10 9 8 9 7 8 6 6 6 7 7 8 9 9 9 8 8 6 7
12 11 12 12 11 10 10 9 8 7 8 8 8 7 8 8 8 9 10 8 7 8
12 14 13 12 12 11 11 10 9 9 9 9 9 9 9 8 8 9 9 8 8 8
14 12 10 10 10 10 10 11 10 8 9 10 9 8 10 9 9 10 9 9 9 11
11 11 11 10 10 9 10 9 8 9 10 11 10 14 15 13 10 11 10 10 10 11
11 12 12 10 9 10 11 9 9 10 10 12 13 13 16 17 12 11 11 11 10 11
9 10 8 9 11 10 9 10 10 10 11 12 12 15 17 17 15 11 12 13 13 12
7 8 9 10 10 9 9 9 10 10 11 13 14 15 17 13 11 12 13 10 10 9
5 5 6 6 7 6 7 11 8 11 12 12 15 12 16 15 9 11 9 5 6 11
3 5 3 2 3 4 6 6 7 9 10 11 12 11 13 17 10 10 9 8 6 6
Wind_Direction
191 191 193 189 175 191 197 204 209 208 211 211 198 193 200 201 211 215 219 225 211 215
189 190 190 185 188 191 196 216 214 200 207 206 199 201 194 206 217 207 226 229 226 227
194 196 187 181 195 192 200 206 202 202 202 202 206 204 193 205 221 206 227 221 220 227
194 195 187 195 200 205 201 204 204 203 205 206 208 205 203 214 222 212 223 213 219 226
190 188 191 197 197 194 212 208 211 202 210 212 214 208 210 218 223 216 218 224 206 233
188 183 196 200 202 198 210 210 210 204 211 215 215 210 219 220 223 218 219 215 209 223
200 201 199 197 199 201 211 213 206 212 219 217 216 215 220 219 224 226 220 215 216 223
192 199 196 195 199 201 205 215 210 200 214 220 219 222 217 215 219 221 222 215 216 223
186 180 189 190 193 195 212 220 209 216 215 217 227 226 212 211 217 222 222 225 227 231
177 182 189 186 183 203 212 217 219 222 220 227 231 223 215 209 224 220 223 224 223 232
180 181 173 177 193 203 206 214 225 229 223 229 235 216 217 209 222 224 225 228 226 232
162 165 173 190 199 202 201 216 222 226 226 226 241 219 218 193 217 226 230 228 224 214
174 177 191 196 201 205 213 224 225 234 230 229 245 224 216 192 213 220 216 165 174 170
55 98 91 147 187 207 217 232 232 236 241 239 236 243 213 194 210 218 211 181 175 165